• In Uzbekistan
  • List of Countries
  • For 7 days
  • Water Temperature
  • Satellite Maps
  • Weather Map
  • Weather Widgets
  • user-avatar
    Login

    Hourly Weather Córdoba

    Today, 23 January, Monday

    Time Temperature Precipitation Wind Pressure Humidity
    00:00 +24°C° 0 mm 2 mps 723 mmHg 48%
    01:00 +23°C° 0 mm 1 mps 723 mmHg 51%
    02:00 +23°C° 0 mm 1 mps 723 mmHg 54%
    03:00 +22°C° 0 mm 1 mps 722 mmHg 55%
    04:00 +22°C° 0 mm 1 mps 722 mmHg 56%
    05:00 +21°C° 0 mm 1 mps 722 mmHg 57%
    06:00 +24°C° 0 mm 1 mps 723 mmHg 50%
    07:00 +27°C° 0 mm 1 mps 723 mmHg 43%
    08:00 +29°C° 0 mm 1 mps 723 mmHg 35%
    09:00 +31°C° 0 mm 1 mps 723 mmHg 31%
    10:00 +33°C° 0 mm 1 mps 723 mmHg 27%
    11:00 +35°C° 0 mm 1 mps 723 mmHg 23%
    12:00 +36°C° 0 mm 2 mps 723 mmHg 21%
    13:00 +37°C° 0 mm 2 mps 722 mmHg 19%
    14:00 +38°C° 0 mm 3 mps 721 mmHg 18%
    15:00 +38°C° 0 mm 3 mps 721 mmHg 18%
    16:00 +38°C° 0 mm 3 mps 720 mmHg 17%
    17:00 +38°C° 0 mm 4 mps 720 mmHg 17%
    18:00 +35°C° 0 mm 4 mps 720 mmHg 21%
    19:00 +33°C° 0 mm 4 mps 720 mmHg 25%
    20:00 +29°C° 0 mm 3 mps 719 mmHg 30%
    21:00 +28°C° 0 mm 3 mps 720 mmHg 32%
    22:00 +27°C° 0 mm 3 mps 720 mmHg 34%
    23:00 +26°C° 0 mm 3 mps 720 mmHg 36%

    Tomorrow, 24 January, Tuesday

    Time Temperature Precipitation Wind Pressure Humidity
    00:00 +25°C° 0 mm 2 mps 720 mmHg 37%
    01:00 +25°C° 0 mm 2 mps 720 mmHg 38%
    02:00 +24°C° 0 mm 2 mps 719 mmHg 38%
    03:00 +24°C° 0 mm 2 mps 719 mmHg 39%
    04:00 +24°C° 0 mm 2 mps 719 mmHg 40%
    05:00 +24°C° 0 mm 2 mps 719 mmHg 41%
    06:00 +26°C° 0 mm 2 mps 720 mmHg 38%
    07:00 +29°C° 0 mm 2 mps 721 mmHg 35%
    08:00 +32°C° 0 mm 2 mps 721 mmHg 31%
    09:00 +34°C° 0.1 mm 3 mps 721 mmHg 30%
    10:00 +35°C° 0.1 mm 4 mps 722 mmHg 29%
    11:00 +36°C° 0.1 mm 5 mps 722 mmHg 27%
    12:00 +36°C° 0.1 mm 5 mps 721 mmHg 26%
    13:00 +37°C° 0.1 mm 4 mps 721 mmHg 25%
    14:00 +38°C° 0.1 mm 4 mps 721 mmHg 24%
    15:00 +37°C° 0.2 mm 5 mps 721 mmHg 26%
    16:00 +36°C° 0.2 mm 6 mps 720 mmHg 27%
    17:00 +35°C° 0.2 mm 7 mps 720 mmHg 29%
    18:00 +32°C° 0 mm 5 mps 721 mmHg 32%
    19:00 +29°C° 0 mm 4 mps 721 mmHg 36%
    20:00 +27°C° 0 mm 3 mps 722 mmHg 40%
    21:00 +26°C° 0 mm 3 mps 723 mmHg 40%
    22:00 +25°C° 0 mm 4 mps 723 mmHg 39%
    23:00 +25°C° 0 mm 4 mps 724 mmHg 39%

    Day after tomorrow, 25 January, Wednesday

    Time Temperature Precipitation Wind Pressure Humidity
    00:00 +23°C° 0 mm 4 mps 724 mmHg 39%
    01:00 +22°C° 0 mm 4 mps 724 mmHg 40%
    02:00 +22°C° 0 mm 4 mps 724 mmHg 40%
    03:00 +21°C° 0 mm 4 mps 724 mmHg 41%
    04:00 +20°C° 0 mm 4 mps 725 mmHg 41%
    05:00 +20°C° 0 mm 4 mps 725 mmHg 42%
    06:00 +21°C° 0 mm 4 mps 726 mmHg 39%
    07:00 +22°C° 0 mm 4 mps 727 mmHg 37%
    08:00 +25°C° 0 mm 4 mps 727 mmHg 35%
    09:00 +26°C° 0 mm 4 mps 728 mmHg 32%
    10:00 +28°C° 0 mm 4 mps 728 mmHg 29%
    11:00 +30°C° 0 mm 3 mps 728 mmHg 27%
    12:00 +32°C° 0 mm 4 mps 727 mmHg 24%
    13:00 +34°C° 0 mm 4 mps 727 mmHg 21%
    14:00 +35°C° 0 mm 4 mps 726 mmHg 19%
    15:00 +35°C° 0 mm 4 mps 726 mmHg 19%
    16:00 +35°C° 0 mm 5 mps 725 mmHg 18%
    17:00 +35°C° 0 mm 5 mps 725 mmHg 18%
    18:00 +32°C° 0 mm 4 mps 725 mmHg 23%
    19:00 +28°C° 0 mm 4 mps 725 mmHg 27%
    20:00 +25°C° 0 mm 3 mps 725 mmHg 32%
    21:00 +23°C° 0 mm 2 mps 726 mmHg 38%
    22:00 +22°C° 0 mm 1 mps 726 mmHg 43%
    23:00 +20°C° 0 mm 1 mps 726 mmHg 49%

    26 January, Thursday

    Time Temperature Precipitation Wind Pressure Humidity
    00:00 +20°C° 0 mm 1 mps 726 mmHg 49%
    01:00 +19°C° 0 mm 1 mps 726 mmHg 49%
    02:00 +19°C° 0 mm 1 mps 726 mmHg 49%
    03:00 +18°C° 0 mm 1 mps 726 mmHg 49%
    04:00 +18°C° 0 mm 1 mps 726 mmHg 49%
    05:00 +18°C° 0 mm 1 mps 726 mmHg 49%
    06:00 +20°C° 0 mm 1 mps 727 mmHg 42%
    07:00 +23°C° 0 mm 2 mps 727 mmHg 35%
    08:00 +26°C° 0 mm 2 mps 728 mmHg 28%
    09:00 +28°C° 0 mm 2 mps 728 mmHg 26%
    10:00 +30°C° 0 mm 3 mps 728 mmHg 23%
    11:00 +33°C° 0 mm 3 mps 728 mmHg 20%
    12:00 +35°C° 0 mm 3 mps 728 mmHg 18%
    13:00 +36°C° 0 mm 3 mps 727 mmHg 17%
    14:00 +37°C° 0 mm 3 mps 726 mmHg 16%
    15:00 +37°C° 0 mm 3 mps 726 mmHg 16%
    16:00 +37°C° 0 mm 3 mps 725 mmHg 16%
    17:00 +37°C° 0 mm 3 mps 725 mmHg 16%
    18:00 +34°C° 0 mm 3 mps 725 mmHg 19%
    19:00 +30°C° 0 mm 3 mps 725 mmHg 23%
    20:00 +27°C° 0 mm 3 mps 725 mmHg 26%
    21:00 +26°C° 0 mm 3 mps 725 mmHg 27%
    22:00 +25°C° 0 mm 3 mps 725 mmHg 28%
    23:00 +24°C° 0 mm 3 mps 726 mmHg 30%

    27 January, Friday

    Time Temperature Precipitation Wind Pressure Humidity
    00:00 +22°C° 0 mm 3 mps 726 mmHg 31%
    01:00 +23°C° 0 mm 2 mps 725 mmHg 31%
    02:00 +21°C° 0 mm 2 mps 725 mmHg 32%
    03:00 +21°C° 0 mm 2 mps 725 mmHg 33%
    04:00 +21°C° 0 mm 2 mps 725 mmHg 33%
    05:00 +21°C° 0 mm 3 mps 725 mmHg 33%
    06:00 +24°C° 0 mm 3 mps 725 mmHg 30%
    07:00 +27°C° 0 mm 4 mps 726 mmHg 27%
    08:00 +29°C° 0 mm 4 mps 726 mmHg 24%
    09:00 +33°C° 0 mm 4 mps 726 mmHg 21%
    10:00 +35°C° 0 mm 4 mps 726 mmHg 18%
    11:00 +37°C° 0 mm 4 mps 726 mmHg 15%
    12:00 +39°C° 0 mm 5 mps 725 mmHg 14%
    13:00 +40°C° 0 mm 5 mps 725 mmHg 13%
    14:00 +41°C° 0 mm 5 mps 724 mmHg 12%
    15:00 +41°C° 0 mm 5 mps 724 mmHg 12%
    16:00 +41°C° 0 mm 6 mps 723 mmHg 12%
    17:00 +40°C° 0 mm 6 mps 723 mmHg 12%
    18:00 +36°C° 0 mm 5 mps 723 mmHg 15%
    19:00 +33°C° 0 mm 5 mps 723 mmHg 19%
    20:00 +29°C° 0 mm 4 mps 723 mmHg 22%
    21:00 +28°C° 0 mm 4 mps 723 mmHg 24%
    22:00 +27°C° 0 mm 4 mps 723 mmHg 26%
    23:00 +25°C° 0 mm 3 mps 724 mmHg 29%

    28 January, Saturday

    Time Temperature Precipitation Wind Pressure Humidity
    00:00 +25°C° 0 mm 3 mps 724 mmHg 30%
    01:00 +24°C° 0 mm 3 mps 723 mmHg 32%
    02:00 +24°C° 0 mm 3 mps 723 mmHg 33%
    03:00 +22°C° 0 mm 3 mps 723 mmHg 35%
    04:00 +22°C° 0 mm 3 mps 723 mmHg 36%
    05:00 +21°C° 0 mm 3 mps 723 mmHg 38%
    06:00 +25°C° 0 mm 4 mps 724 mmHg 34%
    07:00 +27°C° 0 mm 4 mps 724 mmHg 31%
    08:00 +29°C° 0 mm 5 mps 725 mmHg 27%
    09:00 +33°C° 0 mm 5 mps 725 mmHg 23%
    10:00 +35°C° 0 mm 6 mps 724 mmHg 19%
    11:00 +38°C° 0 mm 6 mps 724 mmHg 16%
    12:00 +39°C° 0 mm 6 mps 724 mmHg 14%
    13:00 +40°C° 0 mm 6 mps 723 mmHg 12%
    14:00 +41°C° 0 mm 7 mps 723 mmHg 11%
    15:00 +40°C° 0 mm 7 mps 722 mmHg 11%
    16:00 +40°C° 0 mm 7 mps 722 mmHg 11%
    17:00 +39°C° 0 mm 7 mps 721 mmHg 12%
    18:00 +35°C° 0 mm 6 mps 721 mmHg 15%
    19:00 +32°C° 0 mm 5 mps 721 mmHg 19%
    20:00 +28°C° 0 mm 3 mps 721 mmHg 23%
    21:00 +26°C° 0 mm 3 mps 722 mmHg 24%
    22:00 +25°C° 0 mm 3 mps 722 mmHg 26%
    23:00 +24°C° 0 mm 3 mps 722 mmHg 28%
    Show more